Guangchuan 01

operational
NORAD ID: 62111 Int'l Des: 2024-221 Owner: HONGQ Country: CN
LEOCIRCULAR

Über Guangchuan 01

Beschreibung wird geladen...

Live-Position

3D-Globus wird geladen...

Nächste Überflüge

Höhenverlauf

Altitude vs Time

uPlot chart will show altitude changes over time

Zweizeiliger Elementsatz

1 62111U 24221A 26062.20936995 .00004838 00000-0 25811-3 0 9994
2 62111 49.9448 318.0233 0006957 233.8086 126.2222 15.16800520 70123
Epoch: 3. März 2026 • Age: 28 hours

Aktueller Status

Höhe 525.8 km
Geschwindigkeit 7.60 km/s
Subsatellitenpunkt -45.43°S, 34.33°W
Startdatum 27. Nov. 2024
Alter 1.2 years
Typ other

Technische Details

Klassifizierung Payload
Masse 500.00 kg
Trockenmasse 500.00 kg
Gesamtmasse 500.00 kg
Länge 0.50 m
Durchmesser 1.80 m
Spannweite 6.00 m
Form Box + 2 pan
Hersteller CAST
Bus-Typ HQ
Phasenstatus In Orbit
Besitzer/Staat HONGQ/CN

Große Konstellationen

Loading constellations...